This is the latest recevied weather packets stored in our database for station/object WX5KDM. If no packets are shown the sender has not sent any weather packets the latest 10 day(s).
| Time | Temp. | Humidity | Pressure | Rain* | Wind** | Luminosity | Snow |
|---|---|---|---|---|---|---|---|
| 1777478571 | 25° C | 82% | 1014.5 hPa | 0 mm | - | - | - |
| 1777478268 | 24.44° C | 86% | 1014.5 hPa | 0 mm | - | - | - |
| 1777477964 | 23.89° C | 86% | 1014.4 hPa | 0 mm | - | - | - |
| 1777477659 | 23.89° C | 86% | 1014.7 hPa | 0 mm | - | - | - |
| 1777477356 | 23.89° C | 88% | 1014.4 hPa | 0 mm | - | - | - |
| 1777477053 | 23.89° C | 88% | 1014.4 hPa | 0 mm | - | - | - |
| 1777476751 | 23.33° C | 92% | 1014.6 hPa | 0 mm | - | - | - |
| 1777476447 | 22.78° C | 95% | 1014.5 hPa | 0 mm | - | - | - |
| 1777476144 | 22.22° C | 96% | 1014.3 hPa | 0 mm | - | - | - |
| 1777475839 | 22.22° C | 98% | 1014.4 hPa | 0 mm | - | - | - |
| 1777475535 | 21.67° C | 99% | 1014.6 hPa | 0 mm | - | - | - |
| 1777475232 | 21.11° C | 99% | 1014.4 hPa | 0 mm | - | - | - |
| 1777474928 | 21.67° C | 99% | 1014.6 hPa | 0 mm | - | - | - |
| 1777474623 | 21.67° C | 99% | 1014.4 hPa | 0 mm | - | - | - |
| 1777474320 | 21.11° C | 99% | 1014.3 hPa | 0 mm | - | - | - |
| 1777474017 | 21.67° C | 99% | 1014.7 hPa | 0 mm | - | - | - |
| 1777473715 | 21.11° C | 99% | 1014.4 hPa | 0 mm | - | - | - |
| 1777473410 | 21.11° C | 99% | 1014.4 hPa | 0 mm | - | - | - |
| 1777473107 | 21.11° C | 99% | 1014.3 hPa | 0 mm | - | - | - |
| 1777472803 | 21.11° C | 99% | 1014 hPa | 0 mm | - | - | - |
| 1777472500 | 21.11° C | 99% | 1014.2 hPa | 0 mm | - | - | - |
| 1777472197 | 21.11° C | 99% | 1013.9 hPa | 0 mm | - | - | - |
| 1777471893 | 21.67° C | 99% | 1014.2 hPa | 0 mm | - | - | - |
| 1777471590 | 21.11° C | 99% | 1014.3 hPa | 0 mm | - | - | - |
| 1777471286 | 20.56° C | 99% | 1014.1 hPa | 0 mm | - | - | - |
* Rain latest hour (hover to see other rain measurements)
** Current wind speed in m/s (hover to see current wind gust speed)